92P/Sanguin                                                    

Epoch 2002 Oct. 13.0 TT = JDT 2452560.5  

T 2002 Sept. 23.05510 TT                                Nakano

q   1.8074281            (2000.0)            P               Q

n   0.07922059     Peri.  163.05002     +0.96707289     +0.25415762

a   5.3692134      Node   182.34976     -0.25437162     +0.96364490

e   0.6633719      Incl.   18.76421     -0.00806919     +0.08241614

P  12.44

From 790 observations 1977-2002, mean residual 0".62.

Residuals in seconds of arc 

1977/                     020831 458  0.4+  0.5-    021001 349  0.6+  1.0+  

770913 675  0.6-  0.9+ S  020831 442  0.4-  0.4+    021001 235  0.9+  0.1-  

771011 805  0.4+  0.4- S  020831 458 (0.1+  2.1-)   021002 118  0.3-  0.1+  

771015 808  1.4+  0.1- S  020831 170  0.3-  0.1-    021002 118  0.2-  0.1-  

771015 808  0.4+  0.5+ S  020901 379  0.1+  0.5+    021002 118  0.2-  0.0   

771015 808  0.9-  1.1+ S  020901 379  0.2+  0.1-    021003 379  0.2+  0.8-  

771017 808 (0.2+  5.2+)S  020901 379  0.2+  0.2+    021003 379  0.4-  0.0   

771017 808 (0.1-  3.3+)S  020901 379  0.2+  0.8+    021003 379  0.5-  0.3+  

771017 808  0.7-  1.4+ S  020902 379  0.2-  0.4-    021004 704 (0.0   4.9+) 

771019 808 (1.8+  3.8+)S  020902 379  0.0   0.4-    021004 704 (0.6+  2.9+) 

771019 805 (3.3+  1.9-)S  020902 379  0.0   1.1-    021004 704 (1.0+  2.6+) 

771019 805 (7.0+  1.0-)S  020902 379  0.4+  0.6-    021004 704 (0.5+  3.1+) 

771019 805  1.9+  0.9- S  020902 170  0.3-  0.4-    021004 704 (3.2+  1.5+) 

771020 808  1.2-  1.1- S  020902 613  0.0   0.0     021004 458  1.7-  0.1+  

771020 809  0.5-  2.3- S  020902 613  0.0   0.0     021004 458  0.5-  1.8-  

771021 809  0.2-  0.8- S  020903 613  0.0   0.0     021005 379  0.1+  0.5-  

771031 372 (5.5-  2.7+)S  020903 A46  0.2+  0.5-    021005 379  0.2+  1.1-  

771031 323  0.2+  0.1- S  020903 A46  0.0   0.5-    021005 360  0.6-  0.7-  

771104 808  0.3+  0.4+ S  020903 A46  0.3-  0.5-    021005 360  0.5-  0.6-  

771104 808  2.0-  1.1- S  020903 613  0.1+  0.1+    021009 379  0.5+  0.6-  

771106 808  0.2+  0.9- S  020903 A46  0.3-  0.8-    021009 379  0.8+  0.2+  

771109 808  0.0   0.8+ S  020903 A46  0.2+  0.8-    021010 379  0.3-  0.5-  

771109 808  1.1+  0.2+ S  020903 A46  0.1+  0.4-    021010 379  0.6-  0.1-  

771109 879 (2.4+  2.3+)S  020903 A46  0.2-  0.5-    021010 340  0.2-  0.3-  

771109 879 (2.1+  2.8+)S  020903 A46  0.2-  0.5-    021010 340  0.4-  0.2-  

771112 801  0.1+  1.9- S  020903 A46  0.1+  0.2-    021010 340  0.3+  0.2+  

771114 805  1.3+  0.1- S  020903 A46  0.2+  0.1+    021010 340  0.4+  0.1+  

771115 805  0.2-  0.6+ S  020903 A46  0.9+  0.0     021010 945  0.2-  0.1+  

771116 805  2.1-  0.2- S  020903 A46  0.3-  0.6-    021010 945  0.9+  0.7+  

771117 805  0.4+  1.6- S  020903 G78  0.6+  0.3-    021010 945  0.0   1.9+  

771214 323 (4.3+  0.2-)S  020903 G78  0.2-  0.7+    021011 379  0.7-  0.3+  

1978/                     020903 G78  0.4-  0.6+    021011 379  0.2-  0.6-  

780112 801 (1.1-  2.5-)S  020903 A46  1.2+  0.8-    021011 J97  0.4+  1.2+  

780131 801  1.5+  0.2- S  020903 A46  0.5+  0.5+    021011 213  0.6-  0.3+  

1989/                     020903 A46  0.8+  0.4-    021011 213  0.1+  0.3+  

890509 807  1.3+  0.7+ S  020903 A46  0.7+  0.5-    021011 213  0.3+  0.4+  

890510 807  0.4-  0.2- S  020903 A46  0.2-  0.1+    021011 170  0.3+  0.4+  

890511 807  0.5+  2.4+ S  020903 A46  0.8+  0.2+    021011 232  1.3+  0.6+  

2002/                     020904 A46  0.5+  0.3-    021011 232  0.7+  1.1+  

020407 568  1.1+  1.3+    020904 A46  0.7+  0.1+    021011 232  0.6+  1.3+  

020407 568  0.8+  1.3+    020904 A46  0.1+  0.1+    021012 704 (0.9+  3.8+) 

020407 568  1.0+  1.2+    020904 A46  0.7+  0.0     021012 704  1.8+  1.3+  

020606 644  0.6+  0.6+    020904 A46  0.4+  0.2+    021012 704  0.8+  1.0+  

020606 644  0.4+  0.7+    020904 A46  0.5+  1.0+    021012 704  0.0   1.4+  

020606 644  0.8+  0.5+    020904 A46  0.3-  0.2-    021012 704 (2.2+  2.5+) 

020609 170  1.7-  0.1+    020904 A46  0.6+  0.1+    021012 349  0.0   0.0   

020609 360  0.3+  0.3+    020904 699  0.0   0.8+    021012 349  0.3-  0.1-  

020609 360  0.3-  0.4-    020904 699  0.6-  0.3+    021012 349  0.4-  0.4+  

020609 360  0.1+  0.6+    020904 642  0.2-  0.0     021012 349  0.2+  0.0   

020613 291  0.1+  0.2-    020904 699  0.1+  0.4+    021012 349  0.4-  0.3-  

020613 291  0.7-  0.3+    020904 642  0.0   0.8-    021012 367  0.8-  0.5+  

020614 704  0.2-  0.9+    020904 642  0.1-  0.3-    021012 367  0.6-  0.0   

020614 704  0.8-  0.4+    020904 762  0.1-  0.1+    021012 367  0.1-  0.2+  

020614 704  0.2-  0.2+    020904 762  0.7-  0.1+    021012 939  0.1-  1.2+  

020614 704  0.4-  0.8+    020904 699  0.0   0.6+    021012 445  0.1-  1.4+  

020614 704  0.0   0.6+    020904 458  0.3-  0.7-    021012 939  0.2-  0.7+  

020619 844  0.5-  1.2+    020904 458  0.0   0.8-    021012 939  0.4-  0.4+  

020619 844  0.3-  0.4+    020905 445  1.7-  0.5+    021012 445  0.2+  1.0+  

020619 844 (3.6+  2.0+)   020905 A46  0.7+  0.1+    021013 379  0.1-  0.2+  

020629 J95  0.5-  0.1-    020905 A46  0.2+  0.2-    021013 379  0.4+  0.2-  

020629 J95  0.9+  0.3-    020905 A46  0.2+  0.3-    021013 J97  0.7-  0.6+  

020629 J95  0.4+  0.3-    020905 A46  1.0+  0.3-    021013 J98  0.5-  0.4-  

020629 J95 (2.3+  0.3+)   020905 A46  0.4+  0.2-    021013 J98  0.4-  0.5+  

020706 118  0.4+  0.3+    020905 A46  1.2+  0.7+    021013 458  1.3-  1.3-  

020706 118  0.2+  0.7+    020905 A46  0.4+  0.6-    021013 458  1.1-  1.1-  

020706 118  0.2-  0.7+    020905 445  1.2-  0.4+    021015 939  0.3-  0.8+  

020708 644  0.7-  0.1-    020905 A46  0.5+  0.4-    021015 939  0.2-  1.3+  

020708 644  1.1-  0.1-    020905 A46  0.3+  0.2-    021015 939  0.1-  1.9+  

020708 644  0.8-  0.3+    020905 A46  0.4-  0.5+    021018 048  1.0-  0.6+  

020713 704 (3.1-  0.1+)   020905 A46  0.2-  0.5+    021018 048  0.7-  1.2+  

020713 704  0.5+  0.8-    020905 A46  1.3+  0.1+    021018 048  0.1-  1.1+  

020713 704  0.2+  0.1-    020905 445  0.8-  0.9+    021018 048 (5.1+  1.2+) 

020713 704  1.6+  0.6-    020905 445  1.3-  0.6+    021018 048 (4.6+  0.2+) 

020713 704  1.1+  0.9+    020905 445  1.5-  0.3+    021019 048  0.3+  0.9-  

020719 939  0.2-  1.1+    020905 642  0.2-  0.3-    021019 048  0.2-  0.1+  

020719 939  0.3-  1.1+    020905 642  0.2-  0.2-    021019 048  1.4-  0.3-  

020719 939  0.5-  1.2+    020905 642  0.2+  0.3+    021019 048  0.4-  0.2+  

020719 939  1.0-  0.7-    020905 379  0.2-  0.3-    021019 118  0.5-  0.2-  

020719 213  0.9+  0.1-    020905 379  0.9-  0.5-    021019 118  0.6-  0.0   

020719 939  0.4+  1.4+    020905 379  0.1-  0.7-    021019 118  0.9-  0.1+  

020719 213  0.4+  0.2-    020905 379  0.4-  0.0     021019 213  0.4+  0.2+  

020719 939 (1.6+  2.9+)   020906 642  0.5-  0.2-    021019 213  0.1-  1.7-  

020720 349  0.1+  0.5+    020906 642  0.3-  0.0     021019 213  1.2+  0.5-  

020720 349  0.0   0.4+    020906 642  0.6-  0.0     021019 232  1.7+  1.0-  

020720 349  0.0   0.4+    020906 170  0.7-  1.3-    021019 232  1.4+  0.7-  

020720 349  0.4+  0.2+    020906 952  0.2-  0.2-    021019 232  0.1+  0.8+  

020721 470  0.1-  0.3-    020906 952  0.1-  0.3-    021019 939  1.0+  0.7+  

020721 470  0.2+  0.3+    020906 952  0.3-  0.3-    021019 939  0.3+  0.7+  

020721 470  0.6-  0.9+    020906 445  0.2+  0.8+    021019 939  0.3-  0.5+  

020723 458  1.2-  1.1-    020906 A46  0.5+  0.4-    021020 048  0.0   0.1+  

020724 458 (3.7-  3.1-)   020906 A46  0.2+  0.2-    021020 048  0.1+  0.1-  

020726 644  0.4-  0.3+    020906 A46  0.1-  0.5-    021020 048  0.1+  0.2-  

020726 644  0.5-  0.3+    020906 A46  0.0   0.5-    021020 048  0.3-  0.5-  

020726 644  0.3-  0.2+    020906 A46  0.3-  0.5-    021020 048  0.4+  0.1-  

020726 213  0.5-  0.3+    020906 A46  0.3+  0.3-    021024 048  0.2-  0.3+  

020726 213  0.1+  0.0     020906 A46  0.7+  0.2-    021024 048  0.0   0.3+  

020726 213  0.4+  0.1-    020906 A46  0.4+  0.0     021024 048  0.2-  0.1+  

020727 170  0.2-  0.1-    020906 445  0.3-  0.1-    021024 048  1.8+  0.7-  

020728 232 (2.4-  1.4-)   020906 A46  0.3+  0.1-    021024 048  0.4-  0.3-  

020728 232  1.1-  0.5+    020907 A46  0.7-  0.2+    021024 J98  0.6-  1.0-  

020728 232  0.4-  0.7+    020907 A46  0.7-  0.3-    021024 J98  0.7-  0.5+  

020803 939  0.1-  0.2-    020907 A46  0.7+  0.1+    021025 232  1.1-  0.8+  

020803 939  0.1+  0.5+    020907 A46  0.1-  0.2-    021025 232  0.1-  0.7+  

020803 939  0.6+  1.0+    020907 A46  0.2+  0.1-    021025 232  0.5+  0.9+  

020804 213  1.1-  0.3-    020907 A46  0.2+  0.6-    021026 J87  0.7+  0.4+  

020804 213  0.5-  0.3-    020907 A46  0.3+  0.0     021026 J87  0.9+  0.3+  

020804 213  0.1+  0.4+    020907 445  0.8-  0.3+    021026 J87  0.8+  0.3+  

020804 A46  0.6-  0.3+    020907 232  0.1-  0.4+    021026 J87  0.6+  0.1+  

020804 A46  0.1-  0.3+    020907 232  1.0+  0.2+    021026 J87  0.5+  0.3+  

020804 A46  0.1+  0.3-    020907 235 (1.1-  2.2+)   021026 J87  0.7+  0.2+  

020804 A46  0.7-  0.5+    020907 939  0.3-  0.1-    021026 J87  0.6+  0.5+  

020804 A46  0.7-  0.4-    020907 939  0.6-  0.1+    021026 J87  0.4+  0.0   

020804 A46  0.8-  0.3+    020907 939  0.8-  0.4+    021026 J87  1.0+  0.1+  

020804 A46  0.0   0.2-    020907 J97  0.1-  0.9-    021026 048  0.7-  0.6+  

020804 A46  0.0   0.0     020907 A46  0.3+  0.1+    021026 048  0.2+  1.0+  

020804 A46  0.4-  0.5+    020907 A46  0.1+  0.2+    021026 048  1.0-  0.1-  

020804 704  0.1-  1.3+    020907 A46  0.3+  0.2-    021026 213  0.7+  0.3+  

020804 704 (1.5+  2.2+)   020907 A46  0.6+  0.1-    021026 939  0.5+  0.6+  

020804 704  1.7+  1.5+    020907 A46  0.0   0.4-    021026 048  0.5-  0.3+  

020804 704 (0.3+  2.6-)   020907 A46  0.8+  0.5-    021026 048 (2.4-  0.1+) 

020804 458  0.3+  1.1-    020907 A46  0.2+  0.4-    021026 939  0.4+  0.4+  

